This is the latest recevied weather packets stored in our database for station/object KJ5EHN. If no packets are shown the sender has not sent any weather packets the latest 10 day(s).
| Time | Temp. | Humidity | Pressure | Rain* | Wind** | Luminosity | Snow |
|---|---|---|---|---|---|---|---|
| 1777865658 | 19.44° C | 53% | 1015.5 hPa | 0 mm | - | - | - |
| 1777865354 | 20° C | 52% | 1015.6 hPa | 0 mm | - | - | - |
| 1777865051 | 20° C | 52% | 1015.5 hPa | 0 mm | - | - | - |
| 1777864748 | 20° C | 52% | 1015.3 hPa | 0 mm | - | - | - |
| 1777864445 | 20° C | 52% | 1015.3 hPa | 0 mm | - | - | - |
| 1777864141 | 20° C | 51% | 1015.2 hPa | 0 mm | - | - | - |
| 1777863839 | 20.56° C | 51% | 1015.6 hPa | 0 mm | - | - | - |
| 1777863534 | 20.56° C | 51% | 1015.3 hPa | 0 mm | - | - | - |
| 1777863232 | 20.56° C | 50% | 1015.4 hPa | 0 mm | - | - | - |
| 1777862928 | 20.56° C | 49% | 1015.2 hPa | 0 mm | - | - | - |
| 1777862625 | 21.11° C | 49% | 1015.4 hPa | 0 mm | - | - | - |
| 1777862322 | 21.11° C | 49% | 1015.4 hPa | 0 mm | - | - | - |
| 1777862019 | 21.11° C | 48% | 1015.3 hPa | 0 mm | - | - | - |
| 1777861714 | 21.11° C | 48% | 1015.3 hPa | 0 mm | - | - | - |
| 1777861411 | 21.11° C | 47% | 1015.3 hPa | 0 mm | - | - | - |
| 1777861108 | 21.67° C | 47% | 1015.1 hPa | 0 mm | - | - | - |
| 1777860805 | 21.67° C | 47% | 1015.3 hPa | 0 mm | - | - | - |
| 1777860502 | 21.11° C | 47% | 1015 hPa | 0 mm | - | - | - |
| 1777860199 | 21.67° C | 47% | 1015.1 hPa | 0 mm | - | - | - |
| 1777859895 | 21.67° C | 46% | 1015 hPa | 0 mm | - | - | - |
| 1777859591 | 21.67° C | 45% | 1015.3 hPa | 0 mm | - | - | - |
| 1777859288 | 21.67° C | 45% | 1015.2 hPa | 0 mm | - | - | - |
| 1777858983 | 21.67° C | 44% | 1015.2 hPa | 0 mm | - | - | - |
| 1777858681 | 22.22° C | 43% | 1015.2 hPa | 0 mm | - | - | - |
| 1777858379 | 22.78° C | 42% | 1015.1 hPa | 0 mm | - | - | - |
* Rain latest hour (hover to see other rain measurements)
** Current wind speed in m/s (hover to see current wind gust speed)